Temp
-12 -12 -12 -12 -12 -13 -13 -13 -13 -13 -12 -12 -12 -12 -12 -11 -11 -11 -11 -11 -11 -11 -12 -11 -11 -11 -11 -11 -11 -11 -11 -11 -11 -11 -11 -12 -13 -12 -11 -11 -11 -11 -11 -12 -11
-12 -12 -12 -12 -12 -13 -13 -13 -13 -13 -13 -13 -12 -12 -11 -11 -11 -11 -11 -11 -11 -11 -12 -11 -11 -11 -11 -11 -11 -11 -11 -11 -11 -12 -12 -12 -13 -13 -12 -11 -12 -11 -12 -11 -11
-11 -12 -12 -13 -13 -13 -13 -13 -13 -13 -13 -13 -13 -13 -12 -12 -12 -11 -11 -11 -11 -11 -12 -12 -12 -12 -12 -12 -12 -12 -11 -11 -11 -12 -12 -12 -12 -13 -13 -12 -12 -12 -11 -11 -11
-12 -12 -12 -12 -13 -13 -13 -13 -13 -13 -13 -13 -12 -12 -12 -12 -12 -12 -12 -12 -12 -12 -12 -12 -12 -12 -12 -12 -12 -12 -12 -12 -12 -12 -12 -12 -12 -12 -13 -13 -12 -12 -12 -11 -11
-12 -12 -13 -13 -13 -13 -13 -13 -13 -13 -13 -13 -13 -12 -13 -12 -12 -12 -12 -12 -13 -13 -13 -12 -13 -13 -12 -12 -12 -12 -12 -12 -12 -12 -12 -12 -12 -12 -12 -13 -13 -12 -12 -12 -12
-12 -13 -13 -13 -14 -14 -13 -13 -13 -13 -13 -13 -13 -13 -13 -13 -12 -12 -12 -13 -13 -13 -13 -13 -13 -13 -13 -12 -12 -12 -12 -12 -12 -12 -12 -12 -12 -11 -12 -13 -13 -12 -12 -12 -13
-13 -13 -13 -14 -14 -14 -14 -14 -14 -13 -13 -13 -13 -13 -14 -13 -13 -13 -13 -13 -13 -13 -13 -13 -13 -13 -13 -13 -12 -12 -12 -12 -12 -12 -12 -12 -12 -10 -11 -12 -13 -12 -12 -13 -12
-13 -13 -13 -14 -14 -14 -14 -14 -14 -14 -15 -14 -14 -14 -15 -14 -14 -14 -13 -13 -13 -13 -13 -13 -13 -13 -13 -13 -13 -13 -12 -12 -13 -13 -13 -13 -11 -12 -12 -12 -13 -12 -12 -12 -13
-14 -14 -14 -14 -14 -15 -15 -15 -15 -15 -15 -15 -14 -15 -15 -14 -14 -14 -14 -13 -13 -14 -14 -14 -14 -13 -13 -13 -13 -13 -12 -12 -13 -14 -13 -13 -11 -12 -13 -12 -13 -13 -12 -12 -13
-14 -14 -14 -14 -14 -15 -15 -15 -15 -15 -15 -15 -15 -15 -15 -14 -14 -14 -14 -14 -14 -15 -15 -15 -15 -15 -15 -16 -15 -16 -16 -16 -15 -16 -15 -13 -12 -12 -13 -13 -13 -14 -14 -13 -13
-15 -15 -15 -15 -15 -15 -16 -15 -15 -15 -16 -15 -15 -15 -15 -15 -15 -15 -14 -14 -16 -16 -16 -16 -16 -16 -18 -18 -18 -18 -17 -16 -16 -16 -17 -14 -13 -13 -13 -13 -13 -13 -14 -13 -13
-15 -15 -15 -15 -15 -15 -15 -16 -16 -15 -16 -15 -15 -15 -15 -15 -16 -15 -15 -16 -16 -16 -17 -17 -17 -18 -18 -18 -18 -18 -18 -18 -17 -17 -18 -17 -14 -13 -13 -13 -14 -14 -13 -14 -14
-15 -15 -15 -15 -15 -15 -15 -16 -16 -16 -16 -16 -16 -15 -15 -15 -16 -17 -17 -17 -17 -17 -17 -17 -17 -17 -18 -18 -20 -20 -19 -18 -18 -18 -19 -18 -15 -14 -13 -13 -13 -13 -13 -13 -14
-15 -15 -15 -15 -15 -15 -15 -16 -16 -16 -16 -16 -16 -15 -16 -16 -16 -17 -17 -17 -17 -17 -17 -17 -18 -19 -19 -19 -21 -22 -22 -22 -21 -20 -19 -20 -18 -15 -13 -13 -13 -13 -13 -12 -13
-15 -16 -16 -16 -16 -16 -16 -16 -17 -17 -16 -16 -16 -17 -17 -17 -17 -18 -17 -17 -17 -17 -17 -17 -18 -19 -19 -20 -22 -22 -23 -23 -23 -21 -19 -19 -19 -15 -14 -13 -13 -13 -13 -13 -13
-15 -16 -16 -16 -16 -16 -16 -17 -17 -17 -17 -17 -17 -17 -18 -18 -19 -18 -18 -18 -18 -18 -17 -18 -18 -19 -20 -21 -22 -23 -23 -24 -24 -23 -21 -18 -20 -15 -14 -13 -13 -13 -13 -13 -14
-16 -16 -16 -16 -15 -16 -16 -17 -17 -17 -17 -17 -18 -18 -18 -19 -19 -19 -19 -19 -18 -18 -18 -17 -19 -19 -20 -21 -23 -24 -24 -24 -24 -23 -19 -19 -19 -16 -15 -14 -13 -13 -14 -14 -13
-16 -16 -16 -15 -15 -16 -17 -17 -18 -18 -18 -18 -17 -18 -19 -19 -19 -19 -20 -20 -20 -19 -18 -18 -18 -20 -21 -21 -23 -24 -24 -24 -23 -20 -18 -18 -18 -16 -15 -14 -14 -13 -14 -14 -14
-16 -15 -15 -15 -16 -16 -17 -17 -18 -18 -18 -17 -17 -18 -19 -20 -19 -19 -20 -20 -19 -19 -20 -19 -19 -20 -20 -21 -22 -23 -24 -24 -23 -20 -19 -18 -17 -16 -15 -14 -14 -14 -14 -14 -14
-15 -15 -15 -15 -16 -16 -17 -17 -18 -18 -18 -17 -17 -17 -19 -20 -20 -19 -20 -20 -19 -19 -20 -19 -19 -20 -20 -21 -22 -24 -23 -22 -20 -19 -18 -16 -16 -15 -15 -15 -14 -14 -14 -14 -14
-15 -15 -15 -16 -16 -17 -17 -17 -18 -18 -18 -17 -17 -17 -18 -20 -20 -20 -20 -20 -19 -19 -20 -19 -20 -20 -20 -22 -21 -22 -21 -20 -19 -18 -16 -17 -16 -15 -15 -15 -15 -16 -14 -14 -14
-16 -15 -15 -16 -16 -17 -17 -17 -18 -18 -18 -18 -17 -17 -18 -20 -20 -20 -20 -20 -20 -19 -19 -19 -19 -20 -20 -20 -20 -20 -20 -18 -19 -17 -16 -16 -16 -15 -15 -15 -15 -16 -15 -14 -14
-16 -16 -16 -17 -17 -17 -17 -17 -18 -18 -18 -18 -18 -18 -18 -19 -20 -20 -20 -20 -20 -19 -19 -19 -18 -19 -20 -19 -19 -19 -19 -19 -18 -17 -17 -17 -16 -16 -15 -15 -15 -15 -15 -14 -14
-16 -16 -16 -17 -17 -17 -17 -17 -18 -18 -18 -18 -18 -18 -18 -19 -20 -20 -20 -20 -20 -20 -19 -19 -19 -18 -19 -19 -19 -18 -18 -18 -18 -18 -17 -16 -16 -16 -15 -15 -15 -15 -15 -14 -14
-16 -16 -16 -17 -17 -17 -17 -17 -18 -18 -18 -18 -18 -18 -18 -18 -19 -20 -20 -20 -20 -20 -19 -19 -19 -19 -19 -18 -18 -18 -18 -17 -17 -17 -17 -16 -16 -16 -15 -15 -15 -15 -15 -15 -14
-16 -16 -16 -17 -17 -17 -17 -17 -18 -18 -18 -19 -19 -19 -18 -18 -19 -20 -20 -20 -20 -20 -19 -19 -19 -18 -18 -18 -18 -18 -17 -17 -17 -17 -17 -16 -17 -16 -16 -15 -15 -15 -15 -14 -14
-16 -16 -16 -17 -17 -17 -17 -17 -18 -18 -19 -19 -19 -19 -19 -19 -19 -19 -20 -20 -20 -20 -20 -19 -19 -19 -18 -18 -18 -17 -18 -18 -17 -17 -17 -17 -16 -16 -16 -16 -15 -15 -15 -14 -14
Height
5763 5760 5757 5755 5753 5751 5750 5749 5748 5747 5746 5745 5745 5744 5743 5743 5742 5742 5744 5746 5745 5747 5750 5751 5753 5756 5757 5761 5765 5768 5769 5775 5779 5780 5785 5788 5788 5791 5795 5801 5804 5808 5811 5813 5817
5757 5754 5753 5750 5748 5745 5743 5742 5741 5740 5738 5738 5737 5736 5734 5734 5734 5733 5735 5735 5737 5739 5742 5743 5746 5749 5749 5753 5755 5759 5764 5770 5774 5774 5776 5779 5782 5785 5790 5796 5800 5805 5807 5811 5814
5751 5748 5745 5743 5741 5739 5737 5735 5734 5732 5731 5729 5728 5727 5726 5725 5726 5725 5725 5727 5729 5729 5731 5734 5736 5739 5741 5745 5746 5752 5756 5763 5766 5768 5769 5773 5774 5777 5783 5788 5797 5801 5802 5805 5807
5744 5742 5740 5736 5733 5732 5729 5727 5726 5724 5723 5722 5720 5718 5717 5715 5717 5718 5719 5718 5719 5721 5723 5725 5727 5729 5732 5734 5738 5738 5745 5753 5759 5760 5764 5766 5768 5770 5774 5782 5791 5794 5796 5799 5802
5737 5734 5731 5729 5726 5724 5721 5719 5717 5716 5714 5712 5712 5710 5709 5706 5707 5707 5709 5710 5711 5712 5714 5715 5718 5721 5723 5725 5727 5728 5735 5742 5749 5753 5757 5759 5761 5762 5767 5773 5783 5788 5791 5795 5800
5729 5726 5724 5720 5717 5715 5712 5710 5708 5706 5704 5703 5702 5701 5699 5697 5698 5699 5699 5701 5702 5703 5704 5707 5708 5711 5713 5714 5717 5718 5723 5732 5740 5745 5748 5751 5751 5754 5763 5765 5774 5780 5785 5790 5793
5722 5719 5716 5713 5709 5707 5704 5701 5699 5696 5694 5693 5692 5690 5690 5688 5688 5690 5691 5691 5693 5694 5695 5697 5699 5701 5705 5706 5706 5709 5712 5720 5730 5735 5738 5739 5740 5747 5755 5758 5764 5771 5776 5783 5787
5715 5711 5708 5706 5701 5698 5695 5693 5690 5687 5684 5682 5682 5682 5681 5679 5681 5681 5681 5683 5684 5684 5684 5686 5690 5691 5693 5694 5695 5698 5701 5705 5714 5721 5724 5725 5734 5740 5746 5749 5756 5763 5768 5775 5782
5709 5704 5701 5698 5693 5689 5686 5684 5681 5678 5676 5674 5675 5674 5674 5672 5671 5672 5672 5673 5673 5674 5674 5675 5676 5679 5681 5680 5681 5684 5686 5687 5692 5703 5708 5714 5727 5731 5733 5737 5743 5754 5759 5767 5773
5702 5698 5695 5692 5687 5682 5679 5676 5674 5673 5670 5668 5668 5670 5667 5665 5665 5664 5663 5663 5662 5661 5659 5660 5661 5664 5664 5663 5669 5669 5670 5673 5678 5688 5695 5701 5710 5720 5722 5726 5733 5741 5750 5757 5765
5696 5693 5691 5687 5680 5676 5673 5671 5671 5669 5664 5663 5664 5662 5661 5659 5658 5656 5656 5654 5652 5651 5649 5649 5652 5655 5648 5650 5652 5652 5654 5654 5665 5672 5676 5688 5695 5702 5711 5715 5720 5728 5738 5749 5757
5690 5687 5685 5681 5676 5671 5668 5666 5664 5663 5662 5658 5657 5656 5654 5654 5652 5648 5646 5646 5644 5642 5640 5641 5643 5637 5638 5636 5636 5635 5638 5643 5650 5658 5656 5669 5676 5689 5693 5703 5709 5717 5727 5738 5749
5686 5683 5681 5677 5671 5667 5665 5663 5660 5658 5656 5653 5651 5650 5648 5646 5644 5641 5638 5635 5634 5633 5630 5632 5635 5631 5626 5623 5618 5618 5619 5632 5634 5641 5642 5651 5657 5669 5685 5695 5700 5707 5718 5727 5738
5682 5680 5676 5674 5668 5664 5662 5660 5657 5654 5651 5648 5645 5642 5640 5637 5635 5632 5629 5628 5627 5624 5623 5624 5623 5617 5612 5608 5601 5599 5611 5614 5616 5624 5628 5636 5638 5653 5669 5682 5688 5698 5706 5719 5730
5679 5677 5673 5669 5664 5662 5659 5656 5652 5649 5646 5642 5638 5635 5632 5630 5627 5625 5622 5620 5618 5616 5617 5617 5612 5605 5598 5599 5589 5592 5594 5594 5599 5608 5611 5626 5630 5647 5659 5670 5682 5693 5701 5712 5723
5676 5673 5670 5666 5661 5659 5655 5651 5648 5646 5640 5636 5632 5628 5625 5622 5620 5618 5616 5614 5613 5609 5609 5607 5599 5593 5589 5582 5577 5581 5580 5583 5585 5592 5592 5620 5621 5632 5653 5674 5683 5685 5691 5701 5711
5672 5670 5667 5662 5659 5655 5651 5647 5645 5640 5636 5632 5627 5623 5618 5617 5614 5612 5611 5609 5607 5602 5599 5594 5589 5580 5575 5570 5566 5563 5569 5573 5578 5582 5587 5614 5613 5624 5649 5660 5669 5677 5684 5691 5699
5669 5667 5664 5660 5656 5652 5647 5644 5639 5635 5631 5627 5622 5617 5614 5612 5610 5608 5606 5606 5603 5596 5589 5583 5578 5570 5566 5561 5557 5555 5561 5567 5575 5580 5600 5612 5606 5627 5641 5649 5659 5668 5673 5678 5686
5666 5664 5661 5657 5653 5649 5645 5640 5636 5632 5628 5623 5617 5612 5608 5607 5606 5605 5603 5601 5597 5592 5586 5577 5568 5558 5554 5552 5550 5552 5551 5573 5574 5581 5597 5603 5616 5629 5638 5646 5655 5661 5665 5673 5682
5662 5661 5658 5654 5651 5646 5642 5638 5633 5628 5623 5618 5614 5609 5605 5603 5602 5601 5599 5598 5595 5590 5583 5575 5560 5555 5549 5547 5548 5551 5566 5570 5575 5582 5593 5599 5615 5626 5635 5642 5648 5654 5659 5666 5674
5658 5658 5655 5652 5648 5644 5641 5636 5630 5626 5621 5615 5610 5605 5601 5601 5598 5598 5596 5595 5592 5587 5580 5571 5560 5555 5552 5547 5553 5563 5562 5568 5573 5580 5588 5604 5613 5621 5629 5636 5640 5646 5653 5662 5667
5655 5655 5652 5649 5645 5640 5638 5634 5628 5623 5618 5613 5608 5602 5598 5596 5596 5595 5594 5591 5590 5585 5579 5573 5565 5562 5559 5556 5560 5565 5570 5576 5580 5586 5594 5602 5612 5619 5627 5632 5638 5641 5646 5651 5656
5651 5650 5649 5646 5642 5638 5635 5631 5626 5621 5617 5612 5606 5601 5596 5592 5593 5592 5591 5590 5588 5586 5580 5577 5571 5567 5568 5570 5572 5575 5577 5581 5583 5588 5593 5602 5610 5617 5623 5628 5632 5634 5639 5644 5646
5648 5647 5646 5643 5639 5635 5632 5628 5624 5619 5614 5609 5605 5600 5594 5589 5588 5590 5588 5588 5585 5585 5582 5580 5578 5575 5577 5579 5581 5581 5580 5580 5586 5590 5598 5602 5608 5614 5619 5623 5626 5628 5633 5636 5639
5643 5643 5642 5640 5637 5634 5630 5625 5621 5617 5613 5608 5603 5598 5593 5588 5584 5585 5586 5586 5584 5582 5582 5581 5580 5579 5578 5582 5581 5583 5585 5586 5587 5593 5598 5602 5605 5609 5613 5616 5619 5622 5625 5627 5632
5638 5639 5638 5637 5634 5631 5629 5624 5619 5614 5610 5606 5602 5597 5592 5587 5583 5581 5582 5584 5584 5583 5581 5581 5580 5579 5581 5582 5583 5586 5584 5585 5587 5591 5595 5598 5602 5606 5607 5610 5614 5616 5619 5621 5626
5632 5633 5634 5633 5631 5628 5626 5622 5618 5611 5607 5603 5600 5596 5591 5587 5581 5579 5579 5580 5582 5583 5581 5581 5580 5580 5581 5583 5582 5584 5585 5585 5587 5589 5592 5595 5597 5601 5605 5607 5609 5610 5613 5616 5619
Wind_Speed
34 35 34 31 29 29 29 31 33 33 34 33 33 33 36 36 35 38 38 38 39 40 39 38 38 39 40 39 37 36 38 31 24 28 40 41 43 44 43 36 32 26 25 29 28
35 36 35 35 35 33 33 34 38 39 37 37 37 37 37 38 38 39 39 40 41 42 39 40 40 41 42 41 42 41 38 32 29 25 37 42 44 47 46 41 35 25 28 26 29
36 36 35 35 37 36 37 38 38 38 39 40 40 39 38 38 40 40 40 39 40 41 40 39 41 41 42 42 44 41 40 35 31 32 31 44 45 50 49 47 35 27 31 28 29
36 35 35 36 36 38 37 36 37 38 38 36 35 37 38 39 40 38 37 38 39 40 40 41 42 44 43 45 43 46 42 39 36 36 32 38 50 51 53 49 41 36 33 32 29
36 35 36 37 38 39 40 39 39 39 39 38 35 37 37 40 40 39 38 37 38 40 40 41 42 43 45 47 48 51 46 43 39 40 39 34 47 52 56 51 47 45 37 28 24
36 36 38 37 38 39 41 41 40 40 39 37 36 37 38 40 39 38 38 37 37 39 41 43 44 45 47 49 51 52 52 47 43 43 44 42 40 53 54 56 52 51 46 35 29
35 36 37 37 37 37 37 36 35 36 37 36 38 37 35 40 37 36 36 36 38 38 41 43 46 48 48 50 55 56 56 53 49 46 46 48 49 45 52 54 58 53 52 46 37
34 35 37 37 35 35 35 36 37 40 37 37 36 34 30 35 32 34 36 37 38 41 43 46 47 49 51 52 55 57 60 60 55 51 50 53 46 44 44 50 59 59 54 48 41
36 35 36 36 34 33 33 33 33 32 34 35 33 30 29 33 34 34 36 38 40 40 42 45 48 50 53 56 60 63 66 65 63 55 56 56 49 47 46 51 55 61 59 51 45
36 37 37 35 34 32 32 30 31 32 32 31 29 27 30 32 32 33 36 37 38 40 44 44 45 48 53 51 53 50 54 56 58 54 56 59 59 54 51 52 56 62 60 54 48
36 36 36 32 28 28 29 28 29 27 29 29 28 29 29 29 31 33 35 35 33 36 38 40 42 42 45 47 50 54 55 60 59 56 53 62 63 60 57 52 58 65 64 57 51
34 32 29 27 26 26 27 28 27 26 26 31 30 30 29 28 27 30 31 32 32 31 35 38 37 41 47 56 60 62 61 61 62 53 57 59 65 62 63 58 58 64 68 63 51
30 26 26 26 25 25 26 26 26 28 29 30 30 30 29 28 24 26 30 29 27 33 32 22 25 39 49 53 57 59 66 62 63 57 54 58 68 66 63 61 56 60 68 69 56
24 23 24 25 23 24 25 26 28 29 29 32 29 27 26 27 28 28 29 28 29 31 26 27 31 42 47 39 50 48 48 49 57 57 65 62 63 67 64 61 58 56 63 65 61
22 22 22 22 22 25 25 26 28 29 30 29 28 23 26 27 27 23 27 28 29 33 30 32 44 50 48 38 46 45 40 42 49 53 67 63 63 65 65 63 58 49 57 62 62
20 20 21 22 23 25 28 29 28 29 32 28 26 26 24 25 23 22 25 25 29 30 30 37 42 38 39 33 41 46 47 42 50 55 64 60 61 66 62 53 55 50 55 60 63
17 19 20 20 23 28 30 31 30 28 29 27 27 25 25 22 23 24 26 24 25 26 27 38 39 42 36 37 34 39 38 42 47 46 55 47 46 58 54 52 55 51 50 52 63
16 18 18 22 26 29 32 31 30 28 27 28 28 25 23 21 22 24 26 21 24 28 30 38 40 35 34 38 24 29 38 36 43 49 38 39 36 40 47 49 51 49 47 51 62
16 15 17 20 25 29 28 27 27 26 27 26 28 24 22 22 22 20 23 23 24 26 31 39 37 31 18 25 20 27 44 33 29 48 35 25 27 39 34 40 46 43 45 51 55
15 13 16 19 23 24 24 24 25 25 25 26 26 23 19 22 21 20 20 22 23 22 27 35 39 21 17 18 17 24 29 38 43 38 14 27 29 28 33 31 32 34 44 55 57
13 13 16 19 19 22 23 21 22 24 24 25 24 23 20 18 21 19 18 19 20 19 25 32 25 18 15 5 15 23 33 39 35 10 14 22 22 16 18 18 18 29 36 45 53
12 13 15 17 16 17 22 22 21 23 24 23 23 22 18 17 19 18 15 16 17 19 18 23 16 11 4 7 17 32 36 16 12 7 3 17 27 22 16 12 19 25 29 36 39
12 11 12 15 14 15 19 21 22 22 23 24 23 21 19 16 17 16 16 15 15 15 16 15 9 3 6 18 36 29 16 8 6 8 11 14 22 24 21 15 19 23 27 36 30
13 10 12 12 14 15 18 21 21 23 23 22 23 22 21 17 15 15 15 14 13 13 13 8 3 18 16 16 14 7 8 16 11 16 17 19 21 20 21 21 32 28 27 28 31
16 11 12 11 12 14 15 18 21 23 24 24 24 23 22 19 14 16 15 13 11 12 11 7 1 12 14 22 22 18 16 13 11 11 13 14 19 22 27 26 28 38 34 31 27
18 14 15 11 10 12 15 18 21 22 23 24 23 24 22 18 13 14 16 12 10 9 10 6 4 2 12 14 22 11 11 5 15 22 23 27 30 23 29 29 26 23 21 23 26
19 15 13 9 10 10 13 17 20 24 23 22 22 22 23 21 15 11 15 16 10 6 7 7 2 5 4 10 11 6 3 6 4 8 14 15 17 22 21 15 16 17 21 19 21
Wind_Direction
301 300 302 301 300 295 293 293 291 289 292 286 273 270 276 274 271 266 261 265 266 263 263 263 262 259 259 259 260 259 259 262 272 252 237 235 233 230 233 234 235 231 235 235 228
299 298 299 300 300 296 294 292 292 290 289 284 283 281 276 271 267 264 264 262 263 262 261 262 262 260 257 256 256 258 260 261 261 263 238 233 237 230 231 232 231 230 237 240 233
304 298 297 296 296 295 294 293 291 287 285 286 285 277 276 276 273 264 262 262 260 259 260 260 260 258 257 257 258 259 261 259 257 257 248 235 237 232 231 232 226 225 236 232 232
303 299 298 296 294 294 294 292 291 290 289 285 283 280 277 274 269 268 265 261 257 258 257 258 259 258 257 256 258 258 256 252 252 254 257 240 237 235 230 232 223 219 228 233 235
307 300 299 295 292 292 292 292 292 291 290 286 281 278 275 272 270 267 262 259 258 259 259 259 258 259 259 259 257 258 255 251 248 250 252 249 239 238 233 231 223 219 223 229 241
306 302 300 297 295 294 294 294 296 293 290 287 281 277 273 269 267 266 263 262 261 260 259 259 260 259 258 258 258 259 259 254 248 247 249 248 243 240 238 235 222 219 223 227 230
307 304 302 300 300 298 295 294 292 290 290 285 279 275 273 269 268 266 265 262 260 260 261 260 260 261 261 261 259 260 262 260 253 247 247 246 243 244 242 239 228 220 223 227 226
302 301 302 301 301 300 298 298 297 294 285 280 277 275 273 271 269 268 268 267 266 266 267 266 263 262 262 262 259 259 258 257 253 248 243 244 242 247 245 243 237 221 223 223 227
302 304 303 301 304 304 300 298 294 288 284 283 281 277 275 273 272 274 272 275 276 276 275 274 273 272 268 266 261 257 255 255 254 246 243 241 241 240 242 238 236 228 223 221 222
303 305 304 304 307 306 302 296 295 295 292 287 282 282 276 276 278 278 280 284 286 287 288 286 282 281 276 272 270 268 263 259 258 256 242 239 241 236 238 237 234 229 229 223 220
308 310 308 306 308 308 303 301 299 298 292 287 288 285 281 280 283 282 284 290 292 291 289 284 285 289 277 270 264 258 252 249 248 249 248 242 240 236 235 237 233 229 228 226 221
315 313 305 304 307 307 307 303 301 297 295 293 292 289 288 286 286 288 292 293 292 292 290 286 290 283 281 276 268 260 255 248 245 239 245 237 235 236 234 232 232 229 226 226 222
316 309 306 307 312 314 310 304 302 298 299 298 298 297 295 293 292 288 290 291 285 298 290 282 294 286 277 273 271 265 255 249 249 242 239 237 235 232 233 233 234 231 229 226 219
309 307 310 312 316 315 311 311 307 305 303 304 305 303 300 298 296 291 287 286 291 294 278 290 303 291 276 287 270 267 256 253 243 238 236 227 232 229 226 229 234 232 231 230 221
308 312 311 315 315 314 315 315 311 310 310 308 305 298 293 291 295 288 286 286 291 296 270 273 295 297 282 285 268 259 252 253 238 231 232 221 228 223 227 225 231 234 229 230 226
310 309 313 316 319 319 320 318 318 316 311 308 301 292 283 287 283 279 282 293 302 299 295 285 290 303 284 272 259 253 245 245 228 222 227 212 227 223 224 226 230 233 232 236 230
307 308 318 324 331 328 322 325 324 315 312 313 310 300 290 286 286 282 290 309 305 306 310 300 303 299 286 280 267 259 233 231 221 226 221 194 222 228 223 225 230 234 232 239 232
301 310 327 334 333 323 327 326 323 318 314 315 315 303 282 281 287 286 295 309 303 313 314 310 307 308 285 284 271 247 221 213 214 210 190 198 219 212 220 223 224 233 230 231 227
300 316 331 334 324 324 327 326 323 320 319 322 320 312 292 276 286 294 292 308 323 314 312 306 320 313 297 284 264 217 217 199 225 195 207 234 201 215 221 228 233 235 231 239 229
300 311 333 326 322 330 327 325 322 321 324 329 330 324 293 281 292 303 301 302 313 310 298 316 324 323 301 261 236 212 205 212 200 191 227 180 197 201 206 219 229 228 228 234 235
293 288 320 316 327 331 327 327 328 326 330 332 335 330 310 272 286 307 307 312 319 314 305 324 326 323 313 270 192 192 190 190 186 167 100 194 203 184 210 223 219 227 244 234 228
282 299 307 303 330 342 335 334 334 329 330 331 337 337 324 286 282 306 306 311 333 343 318 339 341 333 304 20 149 174 179 169 166 80 130 202 195 200 213 223 254 250 243 240 231
267 293 300 296 320 338 340 342 336 331 331 332 335 339 335 300 277 296 315 311 330 346 336 354 335 351 195 181 165 173 203 255 210 178 191 218 219 228 245 221 245 230 221 226 221
258 281 295 308 314 331 340 343 344 336 332 333 335 338 340 324 281 280 304 321 323 344 349 339 308 200 195 192 230 284 309 306 257 232 255 229 226 228 235 246 251 262 243 217 218
249 272 290 303 315 330 336 341 342 337 335 333 334 337 342 334 302 264 282 311 329 338 341 320 357 227 229 218 236 250 262 272 253 230 248 256 256 261 260 263 264 259 262 242 228
243 256 283 290 302 324 326 340 343 343 337 333 334 337 340 343 329 273 261 279 314 327 329 333 278 181 158 243 245 222 99 85 232 244 240 248 256 250 278 271 270 264 253 242 236
243 250 269 290 286 318 322 334 334 336 338 337 335 337 340 344 347 316 260 264 284 296 313 322 285 234 193 179 182 158 323 28 79 231 234 237 240 257 249 241 242 239 239 233 223